Find Starlink 34437

NORAD ID: 64346 Int'l Des: 2025-126 Owner: SPXS Country: US Constellation: starlink operational
LEOCIRCULAR

实时位置

正在加载3D地球...

关于 Starlink 34437

正在加载描述...

即将过境

Passes for default location (London). Set your location on the main map for personalized predictions.

高度历史

Loading altitude history...

两行轨道根数

1 64346U 25126C 26106.63478670 .00002430 00000-0 21131-3 0 9995
2 64346 69.9993 298.8673 0002906 264.0718 96.0110 14.98337913 46362
Epoch: Apr 16, 2026 • Age: 14 hours

当前状态

高度 581.7 km
速度 7.57 km/s
星下点 -29.47°S, 2.53°W
发射日期 Jun 13, 2025
运行时间 0.8 years
类型 internet

技术详情

分类 Payload
质量 575.00 kg
干质量 530.00 kg
总质量 575.00 kg
长度 0.30 m
直径 4.10 m
跨度 29.00 m
形状 Box + pan
制造商 SPXS
平台类型 Starlink V2MO
阶段状态 In Orbit
所有者/国家 SPXS/US

Most Searched